Time,TemperatureF,DewpointF,PressureIn,WindDirection,WindDirectionDegrees,WindSpeedMPH,WindSpeedGustMPH,Humidity,HourlyPrecipIn,Conditions,Clouds,dailyrainin,SolarRadiationWatts/m^2,SoftwareType,DateUTC
2016-02-07 00:00:00,58.5,57.4,29.85,West,278,6.0,6.0,96,0.00,,,0.00,0,Wunderground v.1.15,2016-02-07 05:00:00,
2016-02-07 00:10:00,58.2,57.1,29.85,WNW,285,6.0,6.0,96,0.00,,,0.00,0,Wunderground v.1.15,2016-02-07 05:10:00,
2016-02-07 00:15:00,58.0,56.9,29.84,West,262,6.0,7.0,96,0.00,,,0.00,0,Wunderground v.1.15,2016-02-07 05:15:00,
2016-02-07 00:20:00,57.7,56.6,29.83,WNW,289,6.0,6.0,96,0.00,,,0.00,0,Wunderground v.1.15,2016-02-07 05:20:00,
2016-02-07 00:25:00,57.6,56.5,29.85,West,271,5.0,7.0,96,0.00,,,0.00,0,Wunderground v.1.15,2016-02-07 05:25:00,
2016-02-07 00:35:00,57.3,56.2,29.83,WNW,292,7.0,7.0,96,0.00,,,0.00,0,Wunderground v.1.15,2016-02-07 05:35:00,
2016-02-07 00:40:00,57.1,56.0,29.83,WNW,303,5.0,5.0,96,0.00,,,0.00,0,Wunderground v.1.15,2016-02-07 05:40:00,
2016-02-07 00:45:00,57.0,55.9,29.83,WNW,297,4.0,8.0,96,0.00,,,0.00,0,Wunderground v.1.15,2016-02-07 05:45:00,
2016-02-07 00:50:00,57.0,55.9,29.83,West,277,4.0,4.0,96,0.00,,,0.00,0,Wunderground v.1.15,2016-02-07 05:50:00,
2016-02-07 01:00:00,56.8,55.7,29.84,West,272,6.0,6.0,96,0.00,,,0.00,0,Wunderground v.1.15,2016-02-07 06:00:00,
2016-02-07 01:10:00,56.4,55.3,29.83,WNW,287,7.0,7.0,96,0.00,,,0.00,0,Wunderground v.1.15,2016-02-07 06:10:00,
2016-02-07 01:15:00,56.3,55.2,29.83,WNW,293,7.0,7.0,96,0.00,,,0.00,0,Wunderground v.1.15,2016-02-07 06:15:00,
2016-02-07 01:30:00,55.8,54.7,29.82,WNW,296,7.0,7.0,96,0.00,,,0.00,0,Wunderground v.1.15,2016-02-07 06:30:00,
2016-02-07 01:35:00,55.6,54.2,29.82,WNW,301,7.0,7.0,95,0.00,,,0.00,0,Wunderground v.1.15,2016-02-07 06:35:00,
2016-02-07 01:45:00,55.4,54.0,29.82,WNW,301,6.0,7.0,95,0.00,,,0.00,0,Wunderground v.1.15,2016-02-07 06:45:00,
2016-02-07 01:50:00,55.3,53.9,29.81,WNW,291,5.0,11.0,95,0.00,,,0.00,0,Wunderground v.1.15,2016-02-07 06:50:00,
2016-02-07 01:55:00,55.2,53.8,29.81,West,276,6.0,11.0,95,0.00,,,0.00,0,Wunderground v.1.15,2016-02-07 06:55:00,
2016-02-07 02:00:00,55.0,53.6,29.81,West,279,6.0,10.0,95,0.00,,,0.00,0,Wunderground v.1.15,2016-02-07 07:00:00,
2016-02-07 02:05:00,54.9,53.5,29.82,West,270,6.0,10.0,95,0.00,,,0.00,0,Wunderground v.1.15,2016-02-07 07:05:00,
2016-02-07 02:15:00,54.9,53.5,29.83,West,260,7.0,7.0,95,0.00,,,0.00,0,Wunderground v.1.15,2016-02-07 07:15:00,
2016-02-07 02:20:00,54.8,53.1,29.81,WNW,303,7.0,8.0,94,0.00,,,0.01,0,Wunderground v.1.15,2016-02-07 07:20:00,
2016-02-07 02:30:00,54.6,52.9,29.82,WNW,283,7.0,10.0,94,0.11,,,0.03,0,Wunderground v.1.15,2016-02-07 07:30:00,
2016-02-07 02:35:00,54.4,52.7,29.82,West,271,7.0,15.0,94,0.06,,,0.03,0,Wunderground v.1.15,2016-02-07 07:35:00,
2016-02-07 02:55:00,53.3,51.3,29.82,WNW,284,5.0,6.0,93,0.06,,,0.05,0,Wunderground v.1.15,2016-02-07 07:55:00,
2016-02-07 03:05:00,52.9,50.9,29.82,NW,305,8.0,9.0,93,0.07,,,0.06,0,Wunderground v.1.15,2016-02-07 08:05:00,
2016-02-07 03:15:00,52.8,50.8,29.82,WNW,288,6.0,7.0,93,0.07,,,0.07,0,Wunderground v.1.15,2016-02-07 08:15:00,
2016-02-07 03:25:00,52.6,50.6,29.81,West,259,8.0,9.0,93,0.00,,,0.07,0,Wunderground v.1.15,2016-02-07 08:25:00,
2016-02-07 03:35:00,52.3,50.3,29.82,WNW,295,6.0,15.0,93,0.00,,,0.07,0,Wunderground v.1.15,2016-02-07 08:35:00,
2016-02-07 03:45:00,52.2,49.9,29.82,West,267,9.0,9.0,92,0.00,,,0.08,0,Wunderground v.1.15,2016-02-07 08:45:00,
2016-02-07 03:55:00,52.0,49.7,29.81,West,280,8.0,9.0,92,0.00,,,0.08,0,Wunderground v.1.15,2016-02-07 08:55:00,
2016-02-07 04:05:00,51.9,49.4,29.82,WNW,285,8.0,13.0,91,0.00,,,0.08,0,Wunderground v.1.15,2016-02-07 09:05:00,
2016-02-07 04:15:00,51.5,48.7,29.82,WNW,285,8.0,11.0,90,0.00,,,0.08,0,Wunderground v.1.15,2016-02-07 09:15:00,
2016-02-07 04:20:00,51.5,48.7,29.82,WNW,287,6.0,6.0,90,0.00,,,0.08,0,Wunderground v.1.15,2016-02-07 09:20:00,
2016-02-07 04:25:00,51.4,48.6,29.82,NW,311,6.0,8.0,90,0.00,,,0.08,0,Wunderground v.1.15,2016-02-07 09:25:00,
2016-02-07 04:30:00,51.3,48.5,29.80,WNW,300,6.0,6.0,90,0.00,,,0.08,0,Wunderground v.1.15,2016-02-07 09:30:00,
2016-02-07 04:40:00,51.3,48.5,29.81,WNW,287,5.0,5.0,90,0.00,,,0.08,0,Wunderground v.1.15,2016-02-07 09:40:00,
2016-02-07 04:45:00,51.3,48.5,29.82,WNW,296,6.0,6.0,90,0.00,,,0.08,0,Wunderground v.1.15,2016-02-07 09:45:00,
2016-02-07 04:50:00,51.2,48.4,29.81,West,266,5.0,13.0,90,0.00,,,0.08,0,Wunderground v.1.15,2016-02-07 09:50:00,
2016-02-07 05:00:00,51.0,48.2,29.82,West,278,7.0,7.0,90,0.00,,,0.08,0,Wunderground v.1.15,2016-02-07 10:00:00,
2016-02-07 05:05:00,51.0,48.2,29.81,NW,309,7.0,7.0,90,0.00,,,0.08,0,Wunderground v.1.15,2016-02-07 10:05:00,
2016-02-07 05:15:00,50.9,48.1,29.81,NW,315,7.0,7.0,90,0.00,,,0.08,0,Wunderground v.1.15,2016-02-07 10:15:00,
2016-02-07 05:25:00,50.9,48.1,29.81,West,270,6.0,7.0,90,0.00,,,0.08,0,Wunderground v.1.15,2016-02-07 10:25:00,
2016-02-07 05:30:00,50.8,47.7,29.81,NW,306,7.0,7.0,89,0.00,,,0.08,0,Wunderground v.1.15,2016-02-07 10:30:00,
2016-02-07 05:35:00,50.8,47.7,29.81,West,274,7.0,7.0,89,0.00,,,0.08,0,Wunderground v.1.15,2016-02-07 10:35:00,
2016-02-07 05:45:00,50.8,47.7,29.81,NW,314,5.0,6.0,89,0.00,,,0.08,0,Wunderground v.1.15,2016-02-07 10:45:00,
2016-02-07 05:50:00,50.7,47.6,29.81,WSW,245,5.0,12.0,89,0.00,,,0.08,0,Wunderground v.1.15,2016-02-07 10:50:00,
2016-02-07 06:00:00,50.5,47.1,29.82,West,278,8.0,8.0,88,0.00,,,0.08,0,Wunderground v.1.15,2016-02-07 11:00:00,
2016-02-07 06:05:00,50.5,47.1,29.82,WNW,301,8.0,8.0,88,0.00,,,0.08,0,Wunderground v.1.15,2016-02-07 11:05:00,
2016-02-07 06:15:00,50.5,47.1,29.82,WNW,287,6.0,7.0,88,0.00,,,0.08,0,Wunderground v.1.15,2016-02-07 11:15:00,